TITAN 4B DEB, 40529

Orbit data source: Space-Track

TITAN 4B DEB, 40529 is space debris in LEO originally from a launch on Thu, 17 Aug 2000 UTC launched from the Air Force Western Test Range (AFWTR). Debris objects in space refer to the collection of defunct objects orbiting the Earth. Examples of debris include non-operational satellites, rocket bodies, and fragments generated from explosions, collisions, or faulty payload assembly.

Loading next visibility...
Identifier
40529, 2000-047F
Orbit
LEO
Country
Flag of USUS
Related business
Manufacturer
LMSS Denver
Mission
Spacecraft
Bus & Motor
Unknown
Mass
Unknown
Launch date (UTC)
2000-08-17 (26 years ago)
Launch vehicle
Unknown
Launch site
Air Force Western Test Range (AFWTR)
Object type
Payload
Rocket body
Debris
Shape & HBR
Unknown shape, 0.1 m
Radar Cross Section
Small (<0.1 m²)

Expand to show TLE details & history
Last TLE update: 3 days ago

TLE from 3 days ago
0 TITAN 4B DEB
1 40529U 00047F   26170.53003683  .00000206  00000-0  28567-4 0  9995
2 40529  67.9928 205.5061 0059599 319.4185  40.2522 14.96146767613095
Epoch: 2026-06-19T12:43Z
TLE epoch observation values (Epoch: 2026-06-19T12:43:15.182Z)
Latitude
0.00007°
Longitude
106.93518°
Altitude
549.544 km
Speed
7.605 km/s
True Right ascension
13h 42m 01s
True Declination
0° 00' 00"
Sunlit
Object was in full shadow at epoch
Visualization orbit readout
Latitude
Unknown
Longitude
Unknown
Altitude
Unknown
Speed
Unknown
Apparent Right ascension
Unknown
Apparent Declination
Unknown
Sunlit
N/A
Visualization observer readout
Local Sidereal Time
21:36:53
Azimuth
Unknown
Elevation
Unknown
Doppler factor
Unknown
Orbital elements
Apogee altitude
618.44 km
Perigee altitude
535.536 km
Semi-major axis
6,955.125 km
Eccentricity
0.00596
Inclination
67.9928°
RAAN
205.5061°
Arg. of periapsis
319.4185°
True anomaly
40.69601°
Mean anomaly
40.2522°
Eccentric anomaly
40.47385°
Mean motion
3.74184 °/min
Orbital period
96.21 mins
BSTAR
0.000028567
Loading maneuver chart data...
Computing Atmospheric mass density...
Loading historical data...
Loading historical data...
Loading historical data...
Loading historical data...
Loading historical data...
Loading historical data...
Loading historical data...
Other satellites on launch #47 in the year 2000 (2000-08-17 UTC)

Documentation

Showing up to 5 results
|